Lubbock, TX

12:37 AM CDT on August 24, 2019 (GMT -0500)
Lubbock International

Weather History for KLBB - May, 2019

Change the Weather History Date:

Tuesday, May 21, 2019

  Actual Average Record
Temperature  
Mean Temperature 65 °F 71 °F  
Max Temperature 80 °F 85 °F 101 °F (1966)
Min Temperature 50 °F 58 °F 39 °F (1967)
Degree Days  
Heating Degree Days 0 1  
Month to date heating degree days 52 34  
Since 1 July heating degree days 3449 3371  
Cooling Degree Days 0 7  
Month to date cooling degree days 79 106  
Year to date cooling degree days 142 162  
Growing Degree Days 15 (Base 50)    
Moisture  
Dew Point 24 °F    
Average Humidity 24    
Maximum Humidity 46    
Minimum Humidity 10    
Precipitation  
Precipitation 0.00 in 0.09 in 3.12 in (1979)
Month to date precipitation 0.73 1.38  
Year to date precipitation 3.65 5.29  
Snow  
Snow 0.00 in 0.00 in 0.00 in (2002)
Month to date snowfall T 0.0  
Since 1 July snowfall 10.1 8.2  
Snow Depth 0.00 in    
Sea Level Pressure  
Sea Level Pressure 29.48 in    
Wind  
Wind Speed 24 mph ()    
Max Wind Speed 45 mph    
Max Gust Speed 58 mph    
Visibility 9.7 miles    
Events      
T = Trace of Precipitation, MM = Missing Value Source: Averaged Metar Reports

Daily Weather History Graph

Daily Weather History Graph

Search for Another Location

Airport or City:

Astronomy

May. 21, 2019 Rise Set
Actual Time 6:42 AM CDT 8:45 PM CDT
Civil Twilight 6:14 AM CDT 9:13 PM CDT
Nautical Twilight 5:41 AM CDT 9:47 PM CDT
Astronomical Twilight 5:04 AM CDT 10:23 PM CDT
Moon 11:40 PM CDT (5/21) 9:02 AM CDT (5/21)
Length of Visible Light 14h 58m
Length of Day
14h 02m
Waning Gibbous, 91% of the Moon is Illuminated
May 21
Waning Gibbous
May 26
Last Quarter
Jun 3
New
Jun 10
First Quarter
Jun 17
Full

Hourly Weather History & Observations

Time (CDT) Temp. Dew Point Humidity Pressure Visibility Wind Dir Wind Speed Gust Speed Precip Events Conditions
12:53 AM 63.0 °F 36.0 °F 37% 29.42 in 10.0 mi NW 36.8 mph 50.6 mph N/A   Mostly Cloudy
1:53 AM 59.0 °F 32.0 °F 36% 29.49 in 10.0 mi NW 19.6 mph 31.1 mph N/A   Mostly Cloudy
2:53 AM 55.9 °F 33.1 °F 42% 29.48 in 10.0 mi WNW 12.7 mph - N/A   Scattered Clouds
4:53 AM 55.9 °F 33.1 °F 42% 29.52 in 10.0 mi West 19.6 mph - N/A   Mostly Cloudy
5:53 AM 53.1 °F 32.0 °F 45% 29.52 in 10.0 mi West 18.4 mph 33.4 mph N/A   Scattered Clouds
6:53 AM 50.0 °F 30.0 °F 46% 29.55 in 10.0 mi West 23.0 mph 28.8 mph N/A   Partly Cloudy
7:53 AM 54.0 °F 28.0 °F 37% 29.53 in 10.0 mi West 25.3 mph 36.8 mph N/A   Partly Cloudy
8:53 AM 57.0 °F 26.1 °F 30% 29.53 in 10.0 mi WSW 34.5 mph 41.4 mph N/A   Clear
9:53 AM 61.0 °F 26.1 °F 26% 29.53 in 10.0 mi West 29.9 mph 42.6 mph N/A   Clear
10:53 AM 64.9 °F 25.0 °F 22% 29.50 in 10.0 mi West 34.5 mph 44.9 mph N/A   Clear
11:53 AM 68.0 °F 25.0 °F 20% 29.47 in 8.0 mi West 39.1 mph 50.6 mph N/A   Clear
12:53 PM 71.1 °F 25.0 °F 18% 29.46 in 9.0 mi West 40.3 mph 50.6 mph N/A   Clear
1:53 PM 73.9 °F 23.0 °F 15% 29.46 in 7.0 mi WSW 36.8 mph 55.2 mph N/A   Clear
2:53 PM 75.9 °F 23.0 °F 14% 29.46 in 10.0 mi West 38.0 mph 51.8 mph N/A   Partly Cloudy
3:53 PM 78.1 °F 23.0 °F 13% 29.45 in 10.0 mi West 32.2 mph 43.7 mph N/A   Partly Cloudy
4:53 PM 79.0 °F 19.9 °F 11% 29.42 in 10.0 mi WSW 25.3 mph 39.1 mph N/A   Partly Cloudy
5:53 PM 79.0 °F 18.0 °F 10% 29.43 in 10.0 mi West 27.6 mph 39.1 mph N/A   Partly Cloudy
6:53 PM 78.1 °F 17.1 °F 10% 29.44 in 10.0 mi West 29.9 mph 36.8 mph N/A   Partly Cloudy
7:53 PM 75.9 °F 18.0 °F 11% 29.44 in 10.0 mi West 17.3 mph - N/A   Partly Cloudy
8:53 PM 73.0 °F 14.0 °F 11% 29.46 in 10.0 mi SW 23.0 mph 32.2 mph N/A   Clear
9:53 PM 71.1 °F 15.1 °F 12% 29.49 in 10.0 mi SW 20.7 mph - N/A   Clear
10:53 PM 69.1 °F 18.0 °F 14% 29.52 in 10.0 mi SSW 13.8 mph - N/A   Clear
11:53 PM 61.0 °F 21.9 °F 22% 29.54 in 10.0 mi South 10.4 mph - N/A   Clear